AVA755 SEQM-SEGU

Flight info

Callsign AVA755
Flight time N/A
Altitude 22000
Route TEMOX3A TEMOX TEMOX2
Aircraft A319/M-SDE3FGHIRWY/LB1

Departure

Time 2026-04-28 13:33
Airport Mariscal Sucre International Airport (SEQM)

Arrival

Time N/A
Airport José Joaquín de Olmedo International Airport (SEGU)
Time Latitude Longitude Altitude Speed Heading
2026-04-28 13:31 -0.14225 -78.35368 7917 ft 5 kts 358°
2026-04-28 13:31 -0.14133 -78.35372 7913 ft 22 kts 358°
2026-04-28 13:31 -0.13898 -78.35382 7900 ft 50 kts 357°
2026-04-28 13:32 -0.13426 -78.35405 7889 ft 89 kts 357°
2026-04-28 13:32 -0.12632 -78.35437 7859 ft 140 kts 357°
2026-04-28 13:32 -0.11497 -78.35483 7828 ft 185 kts 356°
2026-04-28 13:32 -0.10171 -78.35517 8305 ft 195 kts 354°
2026-04-28 13:33 -0.08803 -78.35546 8916 ft 199 kts 354°
2026-04-28 13:33 -0.07415 -78.35566 9544 ft 201 kts 354°
2026-04-28 13:33 -0.06010 -78.35578 10206 ft 204 kts 353°
2026-04-28 13:33 -0.04584 -78.35584 10877 ft 206 kts 353°
2026-04-28 13:34 -0.03145 -78.35581 11549 ft 207 kts 353°
2026-04-28 13:34 -0.01711 -78.35569 12236 ft 207 kts 351°
2026-04-28 13:34 -0.00278 -78.35548 12908 ft 206 kts 351°
2026-04-28 13:34 0.01148 -78.35516 13583 ft 205 kts 349°
2026-04-28 13:35 0.02563 -78.35473 14237 ft 203 kts 349°
2026-04-28 13:35 0.03962 -78.35419 14892 ft 200 kts 348°
2026-04-28 13:35 0.05343 -78.35351 15543 ft 198 kts 347°
2026-04-28 13:35 0.06704 -78.35270 16205 ft 196 kts 347°
2026-04-28 13:36 0.08050 -78.35184 16828 ft 190 kts 343°
2026-04-28 13:36 0.09339 -78.35227 17378 ft 186 kts 339°
2026-04-28 13:36 0.10482 -78.35542 17921 ft 160 kts 311°
2026-04-28 13:36 0.11298 -78.36220 18468 ft 147 kts 297°
2026-04-28 13:37 0.11912 -78.37026 19008 ft 146 kts 294°
2026-04-28 13:37 0.12494 -78.37852 19602 ft 145 kts 292°
2026-04-28 13:37 0.13077 -78.38676 20148 ft 146 kts 292°
2026-04-28 13:37 0.13401 -78.39635 20359 ft 154 kts 270°
2026-04-28 13:38 0.13434 -78.40772 20488 ft 174 kts 272°
2026-04-28 13:38 0.13535 -78.42044 20617 ft 194 kts 273°
2026-04-28 13:38 0.13658 -78.43440 20736 ft 209 kts 273°
2026-04-28 13:38 0.13788 -78.44932 20894 ft 224 kts 272°
2026-04-28 13:39 0.13925 -78.46525 21030 ft 239 kts 272°
2026-04-28 13:39 0.14072 -78.48243 21159 ft 257 kts 272°
2026-04-28 13:39 0.14228 -78.50073 21290 ft 273 kts 273°
2026-04-28 13:39 0.14393 -78.52019 21416 ft 292 kts 274°
2026-04-28 13:40 0.14534 -78.54103 21544 ft 311 kts 270°
2026-04-28 13:40 0.14088 -78.56264 21779 ft 330 kts 251°
2026-04-28 13:40 0.12806 -78.58215 21988 ft 348 kts 233°
2026-04-28 13:40 0.10735 -78.59598 22009 ft 374 kts 213°
2026-04-28 13:41 0.08300 -78.60567 22014 ft 378 kts 211°
2026-04-28 13:41 0.05849 -78.61500 22016 ft 379 kts 211°
2026-04-28 13:41 0.03388 -78.62429 22011 ft 379 kts 211°
2026-04-28 13:41 0.00930 -78.63362 22009 ft 380 kts 211°
2026-04-28 13:42 -0.01529 -78.64305 22009 ft 379 kts 211°
2026-04-28 13:42 -0.03982 -78.65254 22007 ft 379 kts 211°
2026-04-28 13:42 -0.06431 -78.66207 22008 ft 379 kts 211°
2026-04-28 13:42 -0.08876 -78.67160 22008 ft 377 kts 211°
2026-04-28 13:43 -0.11324 -78.68116 22014 ft 379 kts 212°
2026-04-28 13:43 -0.13768 -78.69071 22010 ft 378 kts 212°
2026-04-28 13:43 -0.16210 -78.70023 22009 ft 378 kts 211°
2026-04-28 13:43 -0.18652 -78.70973 22005 ft 377 kts 211°
2026-04-28 13:44 -0.21207 -78.71699 22000 ft 392 kts 200°
2026-04-28 13:44 -0.23988 -78.71850 22005 ft 410 kts 187°
2026-04-28 13:44 -0.26850 -78.71343 21999 ft 428 kts 174°
2026-04-28 13:44 -0.29703 -78.70471 22003 ft 430 kts 173°
2026-04-28 13:45 -0.32561 -78.69605 22004 ft 430 kts 173°
2026-04-28 13:45 -0.35415 -78.68753 22006 ft 429 kts 174°
2026-04-28 13:45 -0.38273 -78.67911 22002 ft 430 kts 174°
2026-04-28 13:45 -0.41129 -78.67072 21998 ft 428 kts 174°
2026-04-28 13:46 -0.43990 -78.66232 22002 ft 429 kts 174°
2026-04-28 13:46 -0.46845 -78.65388 22003 ft 429 kts 174°
2026-04-28 13:46 -0.49702 -78.64539 21999 ft 429 kts 174°
2026-04-28 13:46 -0.52551 -78.63690 21998 ft 428 kts 173°
2026-04-28 13:47 -0.55403 -78.62839 22000 ft 429 kts 174°
2026-04-28 13:47 -0.58257 -78.61990 22003 ft 429 kts 174°
2026-04-28 13:47 -0.61117 -78.61140 22006 ft 430 kts 174°
2026-04-28 13:47 -0.63974 -78.60291 22005 ft 429 kts 174°
2026-04-28 13:48 -0.66828 -78.59441 22003 ft 429 kts 174°
2026-04-28 13:48 -0.69688 -78.58591 22004 ft 429 kts 174°
2026-04-28 13:48 -0.72543 -78.57744 22004 ft 429 kts 174°
2026-04-28 13:48 -0.75399 -78.56897 22003 ft 429 kts 174°
2026-04-28 13:49 -0.78255 -78.56052 22003 ft 429 kts 174°
2026-04-28 13:49 -0.81113 -78.55206 22003 ft 429 kts 174°
2026-04-28 13:49 -0.83970 -78.54360 22004 ft 429 kts 174°
2026-04-28 13:49 -0.86824 -78.53510 22005 ft 430 kts 174°
2026-04-28 13:50 -0.89679 -78.52658 22008 ft 430 kts 174°
2026-04-28 13:50 -0.92540 -78.51805 22009 ft 430 kts 174°
2026-04-28 13:50 -0.95400 -78.50952 22010 ft 430 kts 174°
2026-04-28 13:50 -0.98260 -78.50101 22010 ft 430 kts 174°
2026-04-28 13:51 -1.01118 -78.49252 22007 ft 429 kts 174°
2026-04-28 13:51 -1.03974 -78.48404 22003 ft 429 kts 174°
2026-04-28 13:51 -1.06821 -78.47559 22003 ft 429 kts 174°
2026-04-28 13:51 -1.09679 -78.46962 22017 ft 409 kts 188°
2026-04-28 13:52 -1.12404 -78.47225 22028 ft 383 kts 206°
2026-04-28 13:52 -1.14719 -78.48307 22031 ft 358 kts 225°
2026-04-28 13:52 -1.16623 -78.49853 22032 ft 352 kts 229°
2026-04-28 13:52 -1.18481 -78.51434 22027 ft 352 kts 229°
2026-04-28 13:53 -1.20332 -78.53020 22021 ft 350 kts 230°
2026-04-28 13:53 -1.21870 -78.54830 21998 ft 338 kts 245°
2026-04-28 13:53 -1.22736 -78.56984 22009 ft 334 kts 260°
2026-04-28 13:53 -1.22862 -78.59278 22010 ft 333 kts 275°
2026-04-28 13:54 -1.22242 -78.61513 22011 ft 339 kts 290°
2026-04-28 13:54 -1.20901 -78.63482 22012 ft 352 kts 306°
2026-04-28 13:54 -1.19007 -78.65083 22013 ft 360 kts 313°
2026-04-28 13:54 -1.17045 -78.66625 22008 ft 360 kts 313°
2026-04-28 13:55 -1.15078 -78.68162 22009 ft 360 kts 313°
2026-04-28 13:55 -1.13112 -78.69700 22013 ft 360 kts 313°
2026-04-28 13:55 -1.11151 -78.71241 22006 ft 359 kts 313°
2026-04-28 13:55 -1.09192 -78.72782 22001 ft 359 kts 313°
2026-04-28 13:56 -1.07238 -78.74323 21999 ft 359 kts 313°
2026-04-28 13:56 -1.05285 -78.75863 21996 ft 359 kts 313°
2026-04-28 13:56 -1.03329 -78.77409 21999 ft 359 kts 313°
2026-04-28 13:56 -1.01372 -78.78954 22001 ft 359 kts 313°
2026-04-28 13:57 -0.99416 -78.80497 22000 ft 359 kts 313°
2026-04-28 13:57 -0.97459 -78.82042 22007 ft 360 kts 313°
2026-04-28 13:57 -0.95499 -78.83590 22010 ft 360 kts 313°
2026-04-28 13:57 -0.93539 -78.85134 22006 ft 359 kts 313°
2026-04-28 13:58 -0.91582 -78.86675 22003 ft 359 kts 313°
2026-04-28 13:58 -0.89623 -78.88215 22001 ft 358 kts 313°
2026-04-28 13:58 -0.87671 -78.89751 21997 ft 358 kts 313°
2026-04-28 13:58 -0.85722 -78.91289 21993 ft 358 kts 313°
2026-04-28 13:59 -0.83770 -78.92832 22001 ft 359 kts 313°
2026-04-28 13:59 -0.81818 -78.94373 21990 ft 358 kts 313°
2026-04-28 13:59 -0.79862 -78.95915 21990 ft 359 kts 313°
2026-04-28 13:59 -0.77905 -78.97458 21998 ft 360 kts 313°
2026-04-28 14:00 -0.75948 -78.99003 21995 ft 359 kts 313°
2026-04-28 14:00 -0.73990 -79.00547 21999 ft 360 kts 313°
2026-04-28 14:00 -0.72030 -79.02092 21996 ft 359 kts 313°
2026-04-28 14:00 -0.70076 -79.03632 22004 ft 359 kts 313°
2026-04-28 14:01 -0.68123 -79.05175 22002 ft 358 kts 313°
2026-04-28 14:01 -0.66343 -79.06861 22001 ft 347 kts 301°
2026-04-28 14:01 -0.65218 -79.08929 22002 ft 336 kts 285°
2026-04-28 14:01 -0.64854 -79.11206 22005 ft 333 kts 269°
2026-04-28 14:02 -0.65261 -79.13476 22005 ft 336 kts 253°
2026-04-28 14:02 -0.66392 -79.15537 22002 ft 346 kts 238°
2026-04-28 14:02 -0.68196 -79.17185 21996 ft 363 kts 221°
2026-04-28 14:02 -0.70484 -79.18341 21993 ft 371 kts 215°
2026-04-28 14:03 -0.72814 -79.19421 21828 ft 369 kts 215°
2026-04-28 14:03 -0.75136 -79.20485 21578 ft 366 kts 215°
2026-04-28 14:03 -0.77442 -79.21543 21328 ft 364 kts 215°
2026-04-28 14:03 -0.79734 -79.22599 21080 ft 363 kts 215°
2026-04-28 14:04 -0.82013 -79.23655 20828 ft 361 kts 215°
2026-04-28 14:04 -0.84281 -79.24709 20584 ft 359 kts 215°
2026-04-28 14:04 -0.86537 -79.25757 20328 ft 358 kts 215°
2026-04-28 14:04 -0.88787 -79.26804 20076 ft 357 kts 216°
2026-04-28 14:05 -0.91026 -79.27846 19828 ft 355 kts 216°
2026-04-28 14:05 -0.93257 -79.28885 19578 ft 353 kts 216°
2026-04-28 14:05 -0.95475 -79.29919 19326 ft 352 kts 215°
2026-04-28 14:05 -0.97693 -79.30953 19072 ft 352 kts 215°
2026-04-28 14:06 -0.99903 -79.31979 18835 ft 351 kts 215°
2026-04-28 14:06 -1.02115 -79.33004 18579 ft 351 kts 214°
2026-04-28 14:06 -1.04321 -79.34029 18323 ft 350 kts 214°
2026-04-28 14:06 -1.06526 -79.35053 18079 ft 350 kts 214°
2026-04-28 14:07 -1.08723 -79.36074 17828 ft 349 kts 214°
2026-04-28 14:07 -1.10916 -79.37095 17578 ft 348 kts 214°
2026-04-28 14:07 -1.13104 -79.38112 17328 ft 348 kts 214°
2026-04-28 14:07 -1.15295 -79.39131 17077 ft 347 kts 214°
2026-04-28 14:08 -1.17480 -79.40147 16827 ft 347 kts 213°
2026-04-28 14:08 -1.19658 -79.41161 16574 ft 346 kts 213°
2026-04-28 14:08 -1.21832 -79.42174 16326 ft 345 kts 213°
2026-04-28 14:08 -1.24003 -79.43186 16075 ft 345 kts 213°
2026-04-28 14:09 -1.26169 -79.44196 15820 ft 344 kts 213°
2026-04-28 14:09 -1.28334 -79.45204 15576 ft 344 kts 213°
2026-04-28 14:09 -1.30497 -79.46210 15325 ft 343 kts 212°
2026-04-28 14:09 -1.32655 -79.47213 15075 ft 342 kts 212°
2026-04-28 14:10 -1.34808 -79.48213 14822 ft 342 kts 212°
2026-04-28 14:10 -1.36961 -79.49213 14578 ft 342 kts 212°
2026-04-28 14:10 -1.39107 -79.50210 14323 ft 341 kts 212°
2026-04-28 14:10 -1.41248 -79.51209 14069 ft 340 kts 211°
2026-04-28 14:11 -1.43389 -79.52207 13820 ft 340 kts 211°
2026-04-28 14:11 -1.45530 -79.53201 13581 ft 339 kts 211°
2026-04-28 14:11 -1.47663 -79.54192 13324 ft 339 kts 211°
2026-04-28 14:11 -1.49795 -79.55182 13072 ft 338 kts 211°
2026-04-28 14:12 -1.51921 -79.56174 12824 ft 338 kts 210°
2026-04-28 14:12 -1.54042 -79.57162 12573 ft 337 kts 210°
2026-04-28 14:12 -1.56160 -79.58147 12324 ft 336 kts 210°
2026-04-28 14:12 -1.58278 -79.59130 12074 ft 336 kts 210°
2026-04-28 14:13 -1.60396 -79.60112 11823 ft 336 kts 210°
2026-04-28 14:13 -1.62509 -79.61092 11576 ft 335 kts 209°
2026-04-28 14:13 -1.64614 -79.62068 11324 ft 334 kts 209°
2026-04-28 14:13 -1.66719 -79.63046 11078 ft 334 kts 209°
2026-04-28 14:14 -1.68817 -79.64022 10824 ft 333 kts 209°
2026-04-28 14:14 -1.70912 -79.64999 10573 ft 333 kts 208°
2026-04-28 14:14 -1.73008 -79.65974 10323 ft 332 kts 208°
2026-04-28 14:14 -1.75096 -79.66946 10079 ft 332 kts 208°
2026-04-28 14:15 -1.77182 -79.67918 9823 ft 331 kts 208°
2026-04-28 14:15 -1.79266 -79.68886 9571 ft 328 kts 208°
2026-04-28 14:15 -1.81284 -79.69821 9436 ft 313 kts 208°
2026-04-28 14:15 -1.83210 -79.70712 9312 ft 299 kts 208°
2026-04-28 14:16 -1.85057 -79.71567 9186 ft 288 kts 208°
2026-04-28 14:16 -1.86849 -79.72400 9061 ft 283 kts 208°
2026-04-28 14:16 -1.88626 -79.73229 8935 ft 282 kts 208°
2026-04-28 14:16 -1.90395 -79.74054 8808 ft 281 kts 208°
2026-04-28 14:17 -1.92163 -79.74879 8685 ft 281 kts 208°
2026-04-28 14:17 -1.93893 -79.75765 8553 ft 279 kts 212°
2026-04-28 14:17 -1.95569 -79.76727 8435 ft 279 kts 213°
2026-04-28 14:17 -1.97241 -79.77702 8352 ft 278 kts 213°
2026-04-28 14:18 -1.98914 -79.78665 8298 ft 277 kts 212°
2026-04-28 14:18 -2.00577 -79.79607 7799 ft 279 kts 216°
2026-04-28 14:18 -2.02288 -79.80593 7211 ft 286 kts 217°
2026-04-28 14:18 -2.03793 -79.81834 6774 ft 281 kts 227°
2026-04-28 14:19 -2.04743 -79.83536 6328 ft 279 kts 256°
2026-04-28 14:19 -2.05060 -79.85417 6036 ft 273 kts 268°
2026-04-28 14:19 -2.05786 -79.87100 5754 ft 268 kts 230°
2026-04-28 14:19 -2.07498 -79.87815 5004 ft 284 kts 179°
2026-04-28 14:20 -2.09203 -79.86896 4602 ft 285 kts 136°
2026-04-28 14:20 -2.10142 -79.85151 4139 ft 287 kts 108°
2026-04-28 14:20 -2.11000 -79.83534 4308 ft 250 kts 139°
2026-04-28 14:20 -2.12486 -79.82997 4167 ft 219 kts 191°
2026-04-28 14:21 -2.13655 -79.83764 3690 ft 207 kts 243°
2026-04-28 14:21 -2.13699 -79.85232 2621 ft 229 kts 289°
2026-04-28 14:21 -2.13253 -79.86817 1392 ft 252 kts 263°
2026-04-28 14:21 -2.14237 -79.88044 1414 ft 219 kts 203°
2026-04-28 14:22 -2.15666 -79.88477 1104 ft 212 kts 197°
2026-04-28 14:22 -2.16968 -79.88891 1374 ft 184 kts 194°
2026-04-28 14:22 -2.18239 -79.88826 1452 ft 190 kts 156°
2026-04-28 14:22 -2.19146 -79.87888 1528 ft 196 kts 109°
2026-04-28 14:23 -2.19088 -79.86535 1602 ft 205 kts 63°
2026-04-28 14:23 -2.18148 -79.85453 1723 ft 212 kts 38°
2026-04-28 14:23 -2.16941 -79.84546 1773 ft 224 kts 35°
2026-04-28 14:23 -2.15680 -79.83651 1770 ft 220 kts 34°
2026-04-28 14:24 -2.14449 -79.82792 1801 ft 212 kts 34°
2026-04-28 14:24 -2.13270 -79.81976 1797 ft 202 kts 33°
2026-04-28 14:24 -2.12141 -79.81201 1764 ft 193 kts 33°
2026-04-28 14:24 -2.11993 -79.81099 1750 ft 192 kts 33°
2026-04-28 14:25 -2.11869 -79.81014 1749 ft 192 kts 32°
2026-04-28 14:25 -2.10784 -79.80287 1728 ft 183 kts 32°
2026-04-28 14:25 -2.09679 -79.79806 1764 ft 166 kts
2026-04-28 14:25 -2.08608 -79.79986 1779 ft 155 kts 326°
2026-04-28 14:26 -2.08020 -79.80840 1821 ft 152 kts 287°
2026-04-28 14:26 -2.07900 -79.81880 1877 ft 152 kts 266°
2026-04-28 14:26 -2.08147 -79.82909 1907 ft 154 kts 249°
2026-04-28 14:26 -2.08647 -79.83869 1709 ft 158 kts 238°
2026-04-28 14:27 -2.09352 -79.84685 1421 ft 154 kts 222°
2026-04-28 14:27 -2.10233 -79.85266 1119 ft 151 kts 208°
2026-04-28 14:27 -2.11160 -79.85736 870 ft 147 kts 208°
2026-04-28 14:27 -2.12048 -79.86234 682 ft 146 kts 211°
2026-04-28 14:28 -2.12912 -79.86741 487 ft 142 kts 210°
2026-04-28 14:28 -2.13760 -79.87220 316 ft 139 kts 211°
2026-04-28 14:28 -2.14600 -79.87705 86 ft 139 kts 210°
2026-04-28 14:28 -2.15359 -79.88141 24 ft 107 kts 210°
2026-04-28 14:29 -2.15659 -79.88317 20 ft 80 kts 210°